Location: Central Falls
(41.8900°N, 71.3929°W)
Time: 21:56:39
(UTC+00:00)

Transit 2A Rocket - All Passes

Search period start: 06 December 2023 00:00
Search period end: 16 December 2023 00:00
Orbit: 593 x 903 km, 66.7° (Epoch: 06 December)

Date Brightness Start Highest point End Pass type
(mag) Time Alt. Az. Time Alt. Az. Time Alt. Az.
06 Dec - 00:57:27 10° S 01:01:50 35° ESE 01:05:56 10° NE night (unlit)
06 Dec - 02:40:20 10° WSW 02:44:19 27° NW 02:48:05 10° N night (unlit)
06 Dec - 09:39:35 10° N 09:43:25 29° NE 09:47:24 10° ESE visible
06 Dec - 11:21:57 10° NW 11:25:48 30° WSW 11:29:51 10° S visible
07 Dec - 00:15:00 10° SSE 00:18:22 19° ESE 00:21:34 10° ENE night (unlit)
07 Dec - 01:55:58 10° SW 02:00:31 46° NW 02:04:49 10° NNE night (unlit)
07 Dec - 08:56:33 10° N 08:59:31 18° NE 09:02:33 10° E visible
07 Dec - 10:37:58 10° NW 10:42:17 58° WSW 10:46:51 10° SSE visible
08 Dec - 01:12:03 10° SSW 01:16:50 87° WNW 01:21:18 10° NNE night (unlit)
08 Dec - 02:57:54 10° WNW 02:59:54 13° NW 03:01:51 10° NNW night (unlit)
08 Dec - 08:14:27 10° NNE 08:15:29 11° NE 08:16:31 10° NE visible
08 Dec - 09:54:17 10° NNW 09:58:40 73° ENE 10:03:18 10° SE visible
08 Dec - 11:39:10 10° W 11:40:34 11° WSW 11:41:59 10° SW daylight
09 Dec - 00:28:38 10° S 00:33:14 49° ESE 00:37:33 10° NE visible
09 Dec - 02:12:26 10° W 02:15:54 20° NW 02:19:14 10° N night (unlit)
09 Dec - 09:10:51 10° NNW 09:14:58 39° NE 09:19:16 10° SE visible
09 Dec - 10:53:45 10° WNW 10:57:11 22° WSW 11:00:45 10° SSW visible
09 Dec - 23:45:47 10° SSE 23:49:44 26° ESE 23:53:28 10° NE visible
10 Dec - 01:27:46 10° WSW 01:32:02 34° NW 01:36:06 10° NNE night (unlit)
10 Dec - 08:27:38 10° N 08:31:08 23° NE 08:34:44 10° ESE visible
10 Dec - 10:09:32 10° NW 10:13:41 41° WSW 10:18:06 10° S visible
10 Dec - 23:03:55 10° SE 23:06:18 14° ESE 23:08:38 10° ENE visible
11 Dec - 00:43:38 10° SW 00:48:18 63° WNW 00:52:42 10° NNE visible
11 Dec - 07:44:51 10° N 07:47:10 14° NE 07:49:31 10° ENE visible
11 Dec - 09:25:43 10° NNW 09:30:07 81° WSW 09:34:48 10° SSE visible
11 Dec - 23:59:57 10° SSW 00:04:40 69° ESE 00:09:05 10° NE visible
12 Dec - 01:44:43 10° W 01:47:31 16° NW 01:50:14 10° N night (unlit)
12 Dec - 08:42:09 10° NNW 08:46:27 54° ENE 08:51:00 10° SE visible
12 Dec - 10:25:48 10° WNW 10:28:31 16° WSW 10:31:21 10° SW visible
12 Dec - 23:16:47 10° S 23:21:06 36° ESE 23:25:11 10° NE visible
13 Dec - 00:59:43 10° WSW 01:03:35 26° NW 01:07:18 10° N visible
13 Dec - 07:58:48 10° N 08:02:41 30° NE 08:06:44 10° ESE visible
13 Dec - 09:41:12 10° NW 09:45:05 30° WSW 09:49:10 10° S visible
13 Dec - 22:34:19 10° SSE 22:37:38 19° ESE 22:40:49 10° ENE visible
14 Dec - 00:15:19 10° SW 00:19:47 45° NW 00:24:02 10° NNE visible
14 Dec - 07:15:45 10° N 07:18:47 18° NE 07:21:55 10° E night (unlit)
14 Dec - 08:57:12 10° NW 09:01:33 58° WSW 09:06:10 10° SSE visible
14 Dec - 23:31:23 10° SSW 23:36:06 85° WNW 23:40:31 10° NNE visible
15 Dec - 01:17:20 10° WNW 01:19:10 12° NW 01:20:59 10° NNW visible
15 Dec - 06:33:30 10° NNE 06:34:45 11° NE 06:36:00 10° ENE night (unlit)
15 Dec - 08:13:30 10° NNW 08:17:55 75° ENE 08:22:36 10° SE visible
15 Dec - 09:58:24 10° W 09:59:50 11° WSW 10:01:17 10° SW visible
15 Dec - 22:47:57 10° S 22:52:30 50° ESE 22:56:46 10° NE visible
